Location: Aldenham
(51.6667°N, 0.3500°W)
Time: 02:22:21
(UTC+00:00)

A-11 Canister half - Pass Details

Date: 19 February 2026
Orbit: 1513 x 1687 km, 47.2° (Epoch: 13 March)

Event Time Altitude Azimuth Distance (km) Brightness Sun altitude
Rises 00:33:16 0° 272° (W) 4,920 - -49.5°
Reaches altitude 10° 00:36:29 10° 270° (W) 3,916 - -49.4°
Maximum altitude 00:46:20 65° 192° (SSW) 1,754 - -49.2°
Drops below altitude 10° 00:55:50 10° 113° (ESE) 3,780 - -48.8°
Sets 00:58:53 0° 111° (ESE) 4,741 - -48.7°
